Location: La Savane
(18.0962°N, 63.0646°W)
Time: 17:35:18
(UTC+00:00)

Cosmos 968 Rocket - Pass Details

Date: 29 October 2020
Orbit: 741 x 770 km, 74.0° (Epoch: 28 November)

Event Time Altitude Azimuth Distance (km) Brightness Sun altitude
Rises 23:25:19 0° 338° (NNW) 3,202 6.9 -25.2°
Reaches altitude 10° 23:27:44 10° 333° (NNW) 2,272 6.2 -25.7°
Maximum altitude 23:32:42 50° 259° (WSW) 942 4.2 -26.9°
Drops below altitude 10° 23:37:37 10° 184° (S) 2,250 6.0 -28.1°
Sets 23:40:01 0° 179° (S) 3,169 6.8 -28.6°
